CW3467 Sant Marti de Canals ES current weather conditions

sailwx.info

Wind from 077

Air temperature 1.1° C
Dewpoint 1.1° C

Last reported at 2016-Dec-07 07:37 UTC.
Time now 2016-Dec-07 08:35 UTC

Location: N 42°14' E 000°59'.
View on Google Maps.

See reports from other nearby stations

  
Tides and Currents Weather Stations Pressure Air Temp Water Temp Dewpoint Dewpoint Depression Visibility Wind Speed Wind Dir Waves Ship Positions
date/time (UTC)wind fromknots sea level pressurealtimeterstation pressurevisibilityair tempwater tempwave heightnotes
2016-Dec-07 07:37 077 1.1
2016-Dec-07 07:07 072 1.7
2016-Dec-07 06:37 122 1.1
2016-Dec-07 06:07 117 1.7
2016-Dec-07 05:37 122 2.2
2016-Dec-07 05:07 127 2.8
2016-Dec-07 04:37 116 2.2
2016-Dec-07 04:07 113 3.3
2016-Dec-07 03:37 112 2.8
2016-Dec-07 03:07 112 2.8
2016-Dec-07 02:37 123 2.8
2016-Dec-07 02:07 125 3.3
2016-Dec-07 01:37 117 0 gusting 0 3.9
2016-Dec-07 01:07 111 3.3
2016-Dec-07 00:37 287 3.9
2016-Dec-07 00:07 111 1 gusting 2 4.4
2016-Dec-06 23:37 104 3.9
2016-Dec-06 23:07 104 4.4
2016-Dec-06 22:37 134 4.4
2016-Dec-06 22:07 029 5.0
2016-Dec-06 21:37 113 1 gusting 2 5.6
2016-Dec-06 21:07 103 5.6
2016-Dec-06 20:37 109 5.6
2016-Dec-06 20:07 131 6.1
2016-Dec-06 19:37 252 6.7
2016-Dec-06 19:07 129 1 gusting 2 6.7
2016-Dec-06 18:37 102 7.2
2016-Dec-06 18:07 120 7.2
2016-Dec-06 17:37 063 8.3
2016-Dec-06 17:07 063 8.3
2016-Dec-06 16:38 268 8.9
2016-Dec-06 16:07 264 11.7
2016-Dec-06 15:38 260 13.9
2016-Dec-06 15:07 300 13.3
2016-Dec-06 14:37 234 0 gusting 1 12.8
2016-Dec-06 14:07 274 12.2
2016-Dec-06 13:37 230 0 gusting 1 12.2
2016-Dec-06 13:07 341 11.1
2016-Dec-06 12:37 223 0 gusting 1 10.6
2016-Dec-06 12:07 264 10.0
2016-Dec-06 11:37 242 0 gusting 1 8.9
2016-Dec-06 11:07 218 8.3
2016-Dec-06 10:37 245 0 gusting 1 7.2
2016-Dec-06 10:07 236 6.1
2016-Dec-06 09:37 141 0 gusting 3 5.6
2016-Dec-06 09:07 203 5.6
2016-Dec-06 08:37 163 5.0
2016-Dec-06 08:07 106 2.8
2016-Dec-06 07:37 108 2.2
2016-Dec-06 07:07 031 2.2
2016-Dec-06 06:37 037 2.8
2016-Dec-06 06:07 037 2.8
2016-Dec-06 05:37 106 2.8
2016-Dec-06 05:07 116 3.3
2016-Dec-06 04:37 122 3.9
2016-Dec-06 04:07 109 3.9
2016-Dec-06 03:37 131 3.9
2016-Dec-06 03:07 137 3.9
2016-Dec-06 02:37 146 3.9
2016-Dec-06 02:07 128 4.4
2016-Dec-06 01:37 101 0 gusting 1 4.4
2016-Dec-06 01:07 010 4.4
2016-Dec-06 00:37 104 5.0
2016-Dec-06 00:07 100 5.0
2016-Dec-05 23:37 107 5.6
2016-Dec-05 23:07 098 5.6
2016-Dec-05 22:37 115 5.6
2016-Dec-05 22:07 105 0 gusting 1 6.7
2016-Dec-05 21:37 098 1 gusting 1 6.1
2016-Dec-05 21:07 125 6.7
2016-Dec-05 20:37 120 0 gusting 1 6.7
2016-Dec-05 20:07 122 1 gusting 1 7.2
2016-Dec-05 19:37 147 7.8
2016-Dec-05 19:07 122 1 gusting 1 8.9
2016-Dec-05 18:37 108 8.3
2016-Dec-05 18:07 041 9.4
2016-Dec-05 17:37 029 9.4
2016-Dec-05 17:07 103 10.0
2016-Dec-05 16:37 125 10.0
2016-Dec-05 16:07 236 10.0
2016-Dec-05 15:37 235 10.6
2016-Dec-05 15:07 236 11.1
2016-Dec-05 14:37 236 11.1
2016-Dec-05 14:07 231 11.7
2016-Dec-05 13:37 151 11.7
2016-Dec-05 13:07 231 0 gusting 2 12.2
2016-Dec-05 12:37 225 0 gusting 4 11.7
2016-Dec-05 12:07 225 10.0
2016-Dec-05 11:37 068 0 gusting 2 10.6
2016-Dec-05 11:07 167 0 gusting 1 9.4
2016-Dec-05 10:37 233 0 gusting 2 8.3
2016-Dec-05 10:07 146 0 gusting 1 7.8
2016-Dec-05 09:37 146 1 gusting 2 7.2
2016-Dec-05 09:07 185 0 gusting 3 6.7
2016-Dec-05 08:37 237 6.7
2016-Dec-05 08:07 155 1 gusting 3 5.0